User: anonymous   Login
Location: *
(58.4167°N, 22.5000°E)
Time: 05:37:24
(UTC+00:00)
Language:

GP-B - Orbit

View from above orbital plane
View from above orbital plane
View from above satellite
View from above satellite

Ground track
Ground track

The orbit data is extracted from the following two-line orbital elements,

1 28230U 04014A   19320.98891187  .00000120  00000-0  14066-4 0  9994
2 28230  89.8189 103.5295 0001954  98.2481 261.8964 14.78704028839542
Epoch (UTC): 16 November 2019 23:44:01
Eccentricity: 0.0001954
inclination: 89.8189°
perigee height: 632 km
apogee height: 635 km
right ascension of ascending node: 103.5295°
argument of perigee: 98.2481°
revolutions per day: 14.78704028
mean anomaly at epoch: 261.8964°
orbit number at epoch: 83954

The dashed part of the orbit path shows where the satellite is in the earth's shadow,  

DLR